Overview Statistics Trail Chart Weather Telemetry Raw packets
 

This is the latest recevied weather packets stored in our database for station/object K4DNM. If no packets are shown the sender has not sent any weather packets the latest 10 day(s).

<< 94 95 96 97 98 99 100 >>
Time Temp. Humidity Pressure Rain* Wind** Luminosity Snow
1787856558 31.67° C 61% 1013.4 hPa 0 mm - 276 W/m² -
1787856256 31.67° C 60% 1013.4 hPa 0 mm - 666 W/m² -
1787855955 31.67° C 60% 1013.5 hPa 0 mm - 688 W/m² -
1787855655 31.67° C 62% 1013.6 hPa 0 mm - 858 W/m² -
1787855351 31.11° C 60% 1013.7 hPa 0 mm - 892 W/m² -
1787855049 31.67° C 62% 1013.8 hPa 0 mm - 398 W/m² -
1787854748 31.67° C 61% 1013.8 hPa 0 mm - 525 W/m² -
1787854449 31.11° C 61% 1013.8 hPa 0 mm - 903 W/m² -
1787854147 31.11° C 64% 1013.9 hPa 0 mm - 435 W/m² -
1787853910 31.11° C 61% 1014 hPa 0 mm - 170 W/m² -
1787853603 31.67° C 60% 1014 hPa 0 mm - 851 W/m² -
1787853242 31.67° C 61% 1014.1 hPa 0 mm - 961 W/m² -
1787852942 31.67° C 60% 1014.1 hPa 0 mm - 453 W/m² -
1787852643 31.67° C 63% 1014.2 hPa 0 mm - 845 W/m² -
1787852341 31.67° C 63% 1014.3 hPa 0 mm - 185 W/m² -
1787852041 31.67° C 60% 1014.3 hPa 0 mm - 950 W/m² -
1787851741 31.67° C 62% 1014.3 hPa 0 mm - 950 W/m² -
1787851438 31.11° C 64% 1014.4 hPa 0 mm - 956 W/m² -
1787851136 31.11° C 63% 1014.5 hPa 0 mm - 889 W/m² -
1787850894 31.11° C 62% 1014.5 hPa 0 mm - 639 W/m² -
1787850534 30.56° C 64% 1014.6 hPa 0 mm - 900 W/m² -
1787850235 30.56° C 64% 1014.6 hPa 0 mm - 905 W/m² -
1787849931 30.56° C 64% 1014.7 hPa 0 mm - 752 W/m² -
1787849632 30.56° C 65% 1014.8 hPa 0 mm - 474 W/m² -
1787849331 30.56° C 65% 1014.8 hPa 0 mm - 510 W/m² -

* Rain latest hour (hover to see other rain measurements)
** Current wind speed in m/s (hover to see current wind gust speed)